[[{"header":{"parameterUnit":"m.s-1","parameterCategory":1,"la1":30.2991,"la2":30.254,"lo1":-89.0895,"lo2":-89.0444,"dx":0.0017,"dy":0.0017,"nx":28,"ny":28,"refTime":"2022-11-05T21:00:00:Z","depth":0,"parameterNumber":2,"parameterNumberName":"U-component_of_WINDS"},"data":[0,0,0,0,0,0,0,0,0,0,0,0,0,0,0,0,0,0,0,0,0,0,0,0,0,0,0,0,0,0,0,0,0,0,0,0,0,0,0,0,0,0,0,0,0,0,0,0,0,0,0,0,0,0,0,0,0,0,-1.5034,-1.5034,0,-1.5073,-1.5074,-1.5074,-1.5057,-1.5056,-1.5055,-1.5054,-1.5094,-1.5096,-1.5098,0,0,0,0,0,0,0,0,0,0,0,0,0,-1.4942,-1.4944,-1.5034,-1.5034,-1.5035,-1.5073,-1.5074,-1.5074,-1.5057,-1.5055,-1.5054,-1.5053,-1.5093,-1.5095,-1.5098,0,0,0,0,0,0,0,0,0,0,0,0,0,-1.4982,-1.4945,-1.5034,-1.5031,-1.5031,-1.5073,-1.5074,-1.5074,-1.5057,-1.5055,-1.5054,-1.5053,-1.5092,-1.5095,-1.5098,-1.5146,0,0,-1.5107,-1.5108,0,0,0,0,0,0,0,0,-1.498,-1.4985,-1.5031,-1.5031,-1.5031,-1.5058,-1.5056,-1.5098,-1.5057,-1.5047,-1.5054,-1.5052,-1.5083,-1.5087,-1.5097,-1.5147,-1.5149,-1.5107,-1.5109,-1.511,-1.5111,0,0,0,0,0,0,0,-1.4977,-1.4984,-1.5049,-1.5031,-1.5032,-1.5027,-1.5031,-1.5064,-1.5073,-1.5048,-1.5047,-1.5052,-1.5083,-1.5095,-1.5098,-1.515,-1.5107,-1.511,-1.5112,-1.5113,-1.5239,-1.524,0,0,0,0,0,0,-1.4974,-1.4981,-1.5048,-1.5051,-1.5001,-1.503,-1.5034,-1.5051,-1.5072,-1.5074,-1.5053,-1.5051,-1.509,-1.5095,-1.51,-1.5155,-1.511,-1.5113,-1.5115,-1.5237,-1.5239,-1.5241,0,0,0,0,0,0,-1.4973,-1.4981,-1.5047,-1.5016,-1.5024,-1.5033,-1.5052,-1.5053,-1.5064,-1.5076,-1.5077,-1.5063,-1.5089,-1.5095,-1.5134,-1.5156,-1.5115,-1.5117,-1.5235,-1.5238,-1.524,-1.5267,0,0,0,0,0,0,-1.497,-1.498,-1.4999,-1.5016,-1.5025,-1.5081,-1.5053,-1.5055,-1.5069,-1.5067,-1.5086,-1.5088,-1.5089,-1.5129,-1.5137,-1.516,-1.512,-1.5233,-1.5236,-1.5239,-1.5265,-1.527,-1.5275,0,0,0,0,0,-1.4967,-1.5005,-1.5,-1.5008,-1.5049,-1.5082,-1.5087,-1.5087,-1.5071,-1.509,-1.5097,-1.5087,-1.5153,-1.5134,-1.5142,-1.5166,-1.5232,-1.5235,-1.5239,-1.5262,-1.5269,-1.5275,0,0,0,0,0,0,-1.499,-1.5007,-1.5001,-1.5047,-1.5063,-1.5079,-1.5102,-1.5095,-1.5116,-1.5113,-1.5112,-1.5117,-1.5156,-1.5165,-1.5143,-1.5212,-1.519,-1.5195,-1.5205,-1.5212,-1.5217,-1.5214,-1.5122,0,0,0,0,0,-1.5001,-1.5026,-1.504,-1.5079,-1.5087,-1.5093,-1.5108,-1.5106,-1.5123,-1.513,-1.514,-1.5157,-1.5181,-1.5197,-1.522,-1.5266,-1.5269,-1.5286,-1.5292,-1.5296,-1.53,-1.5324,-1.5331,-1.5252,-1.5252,-1.5252,0,0,-1.5022,-1.5035,-1.5051,-1.5084,-1.5096,-1.5122,-1.5099,-1.5128,-1.5147,-1.5134,-1.5171,-1.5179,-1.5197,-1.5239,-1.5258,-1.5247,-1.5323,-1.53,-1.5304,-1.5306,-1.5328,-1.5336,-1.5342,-1.5255,-1.5254,-1.5254,0,0,-1.5075,-1.5088,-1.5121,-1.5133,-1.5152,-1.5156,-1.5164,-1.5181,-1.5185,-1.5222,-1.5212,-1.5235,-1.5277,-1.529,-1.5302,-1.5358,-1.5349,-1.5365,-1.5394,-1.5416,-1.5423,-1.5428,-1.5447,-1.5454,-1.537,-1.537,-1.537,0,-1.51,-1.5139,-1.5138,-1.5168,-1.5182,-1.5171,-1.5203,-1.5215,-1.5241,-1.525,-1.5238,-1.5289,-1.5301,-1.5345,-1.5359,-1.5369,-1.5377,-1.5363,-1.5422,-1.5427,-1.5432,-1.545,-1.5457,-1.5372,-1.5371,-1.5371,-1.5371,0,-1.5168,-1.5195,-1.5219,-1.5244,-1.526,-1.5291,-1.5294,-1.5311,-1.5308,-1.5312,-1.5349,-1.5362,-1.5387,-1.5398,-1.5395,-1.5441,-1.5433,-1.5422,-1.5399,-1.5442,-1.5458,-1.5465,-1.5374,-1.5373,-1.5373,-1.5372,0,0,-1.5238,-1.526,-1.5269,-1.5279,-1.5298,-1.5319,-1.5349,-1.5373,-1.5386,-1.5404,-1.5428,-1.5463,-1.5452,-1.5465,-1.5464,-1.5484,-1.5526,-1.5469,-1.547,-1.5478,-1.5575,-1.5584,-1.5592,-1.552,-1.5522,-1.5523,-1.5573,0,-1.5291,-1.5343,-1.5343,-1.5391,-1.5415,-1.5404,-1.543,-1.5444,-1.5449,-1.547,-1.5475,-1.5499,-1.5483,-1.5491,-1.551,-1.5517,-1.5545,-1.5513,-1.5542,-1.5543,-1.5537,-1.5601,-1.561,-1.5657,-1.558,-1.5581,-1.5582,0,-1.5361,-1.538,-1.543,-1.5444,-1.5454,-1.5478,-1.5498,-1.5519,-1.5534,-1.5536,-1.5551,-1.5546,-1.5575,-1.5552,-1.5592,-1.557,-1.5582,-1.5586,-1.5588,-1.559,-1.5565,-1.5603,-1.5672,-1.5679,-1.5593,-1.5592,-1.5591,0,-1.5405,-1.5443,-1.5478,-1.5487,-1.5505,-1.5521,-1.5529,-1.5543,-1.5557,-1.5575,-1.5584,-1.5605,-1.5617,-1.5633,-1.5634,-1.5617,-1.5673,-1.5651,-1.5675,-1.5675,-1.5687,-1.5686,-1.5758,-1.5696,-1.5696,-1.5696,-1.5696,0,-1.5465,-1.5496,-1.5498,-1.5519,-1.5553,-1.5551,-1.5585,-1.5591,-1.5603,-1.5625,-1.5617,-1.5638,-1.5638,-1.5658,-1.5659,-1.5691,-1.5696,-1.5698,-1.5698,-1.5698,-1.5698,-1.5705,-1.5702,-1.5698,-1.5697,-1.5697,-1.5697,0,-1.552,-1.5523,-1.556,-1.5573,-1.5577,-1.5601,-1.5612,-1.5632,-1.5635,-1.5663,-1.5669,-1.5675,-1.5698,-1.57,-1.5728,-1.5728,-1.5766,-1.5763,-1.5761,-1.576,-1.5784,-1.5781,-1.5862,-1.5872,-1.5805,-1.5805,-1.5806,0,-1.5557,-1.5581,-1.5596,-1.561,-1.5618,-1.5641,-1.5655,-1.5654,-1.5668,-1.5686,-1.5704,-1.5726,-1.5744,-1.5782,-1.5789,-1.5809,-1.5806,-1.5833,-1.5809,-1.5808,-1.5805,-1.5803,-1.5805,-1.5837,-1.5838,-1.5839,-1.5839,0,-1.5623,-1.5623,-1.5643,-1.5663,-1.568,-1.5696,-1.571,-1.5722,-1.5723,-1.5739,-1.5763,-1.5777,-1.5804,-1.5827,-1.5846,-1.5854,-1.5846,-1.5846,-1.5853,-1.5853,-1.5851,-1.5851,-1.5773,-1.5845,-1.5844,-1.5844,-1.5843,-1.5843,-1.567,-1.569,-1.5703,-1.5725,-1.5736,-1.5749,-1.5768,-1.5773,-1.5793,-1.5815,-1.5813,-1.5839,-1.5852,-1.5878,-1.5887,-1.5907,-1.5898,-1.5908,-1.591,-1.5912,-1.5914,-1.5848,-1.5911,-1.5911,-1.591,-1.591,-1.591,0,-1.5735,-1.5742,-1.5762,-1.5783,-1.58,-1.5791,-1.5806,-1.5821,-1.5844,-1.5857,-1.5874,-1.59,-1.5922,-1.5929,-1.5949,-1.5963,-1.596,-1.5969,-1.5967,-1.5969,-1.5921,-1.5913,-1.5971,-1.5971,-1.5971,-1.5971,-1.5971,-1.5971,-1.577,-1.5802,-1.5803,-1.584,-1.5847,-1.5872,-1.5882,-1.5894,-1.5904,-1.5933,-1.5951,-1.5955,-1.5965,-1.5986,-1.6004,-1.6006,-1.6013,-1.6023,-1.6023,-1.5978,-1.5972,-1.5966,-1.5959,-1.6025,-1.6025,-1.6068,-1.6069,-1.6069]},{"header":{"parameterUnit":"m.s-1","parameterCategory":1,"la1":30.2991,"la2":30.254,"lo1":-89.0895,"lo2":-89.0444,"dx":0.0017,"dy":0.0017,"nx":28,"ny":28,"refTime":"2022-11-05T21:00:00:Z","depth":0,"parameterNumber":3,"parameterNumberName":"V-component_of_WINDS"},"data":[0,0,0,0,0,0,0,0,0,0,0,0,0,0,0,0,0,0,0,0,0,0,0,0,0,0,0,0,0,0,0,0,0,0,0,0,0,0,0,0,0,0,0,0,0,0,0,0,0,0,0,0,0,0,0,0,0,0,-0.0081,-0.0081,0,-0.0067,-0.0067,-0.0067,-0.006,-0.006,-0.006,-0.006,-0.0045,-0.0044,-0.0044,0,0,0,0,0,0,0,0,0,0,0,0,0,-0.01,-0.01,-0.0081,-0.0081,-0.0081,-0.0067,-0.0067,-0.0067,-0.006,-0.006,-0.006,-0.006,-0.0045,-0.0044,-0.0044,0,0,0,0,0,0,0,0,0,0,0,0,0,-0.009,-0.01,-0.0081,-0.0076,-0.0075,-0.0067,-0.0067,-0.0067,-0.006,-0.006,-0.006,-0.006,-0.0045,-0.0044,-0.0044,-0.0039,0,0,-0.0042,-0.0041,0,0,0,0,0,0,0,0,-0.009,-0.0089,-0.0077,-0.0076,-0.0076,-0.0065,-0.0068,-0.0058,-0.006,-0.0066,-0.006,-0.006,-0.0051,-0.005,-0.0048,-0.0039,-0.0038,-0.0042,-0.0041,-0.0041,-0.0041,0,0,0,0,0,0,0,-0.0091,-0.0089,-0.0076,-0.0077,-0.0076,-0.0074,-0.0072,-0.0066,-0.0059,-0.0065,-0.0065,-0.0063,-0.0051,-0.0048,-0.0047,-0.0038,-0.0042,-0.0041,-0.0041,-0.004,-0.0022,-0.0022,0,0,0,0,0,0,-0.0093,-0.009,-0.0076,-0.0075,-0.0083,-0.0073,-0.0072,-0.0069,-0.0059,-0.0057,-0.0063,-0.0063,-0.0049,-0.0048,-0.0047,-0.004,-0.0041,-0.004,-0.004,-0.0023,-0.0022,-0.0022,0,0,0,0,0,0,-0.0093,-0.0092,-0.0077,-0.0082,-0.008,-0.0073,-0.007,-0.0068,-0.0066,-0.0057,-0.0056,-0.0062,-0.0049,-0.0047,-0.0041,-0.0039,-0.004,-0.0039,-0.0023,-0.0022,-0.0022,-0.0027,0,0,0,0,0,0,-0.0094,-0.0092,-0.0091,-0.0083,-0.008,-0.0072,-0.007,-0.0068,-0.0065,-0.0064,-0.0055,-0.0054,-0.0049,-0.0042,-0.004,-0.0038,-0.0039,-0.0023,-0.0023,-0.0022,-0.0027,-0.0027,-0.0027,0,0,0,0,0,-0.0094,-0.0093,-0.0091,-0.0089,-0.0079,-0.0072,-0.007,-0.0065,-0.0065,-0.0063,-0.0057,-0.0054,-0.004,-0.0041,-0.0039,-0.0037,-0.0023,-0.0023,-0.0022,-0.0027,-0.0027,-0.0027,0,0,0,0,0,0,-0.0101,-0.0091,-0.0089,-0.0085,-0.0079,-0.0071,-0.0069,-0.0066,-0.006,-0.006,-0.0053,-0.0051,-0.0044,-0.004,-0.0042,-0.0031,-0.0031,-0.003,-0.0035,-0.0034,-0.0035,-0.0036,-0.0038,0,0,0,0,0,-0.0102,-0.0097,-0.0089,-0.0086,-0.0083,-0.0076,-0.0073,-0.007,-0.0063,-0.0061,-0.0055,-0.0048,-0.0042,-0.0038,-0.0032,-0.0026,-0.0023,-0.0023,-0.0023,-0.0023,-0.0023,-0.0017,-0.0017,-0.0022,-0.0022,-0.0022,0,0,-0.0103,-0.0098,-0.0096,-0.0087,-0.0082,-0.0077,-0.0075,-0.007,-0.0065,-0.006,-0.0053,-0.0048,-0.004,-0.0034,-0.003,-0.003,-0.0021,-0.0023,-0.0023,-0.0022,-0.0017,-0.0017,-0.0016,-0.0021,-0.0021,-0.0021,0,0,-0.0104,-0.01,-0.0096,-0.0091,-0.0084,-0.0079,-0.0078,-0.007,-0.0066,-0.0059,-0.0054,-0.0049,-0.0039,-0.0033,-0.0029,-0.0025,-0.0021,-0.0023,-0.0023,-0.0018,-0.0018,-0.0017,-0.0015,-0.0014,-0.0023,-0.0023,-0.0023,0,-0.0107,-0.01,-0.0094,-0.0089,-0.0085,-0.008,-0.0075,-0.007,-0.0061,-0.0058,-0.0058,-0.0044,-0.0038,-0.0029,-0.0028,-0.0025,-0.0023,-0.0024,-0.0018,-0.0018,-0.0017,-0.0015,-0.0014,-0.0023,-0.0023,-0.0023,-0.0023,0,-0.0103,-0.0098,-0.0096,-0.0087,-0.0083,-0.0078,-0.0071,-0.0067,-0.0063,-0.0058,-0.005,-0.0043,-0.0034,-0.0032,-0.0028,-0.0022,-0.0021,-0.002,-0.0019,-0.0017,-0.0015,-0.0014,-0.0023,-0.0023,-0.0023,-0.0023,0,0,-0.0108,-0.0095,-0.0095,-0.009,-0.0081,-0.0076,-0.007,-0.0062,-0.0058,-0.0052,-0.0046,-0.0037,-0.0035,-0.003,-0.0025,-0.0021,-0.0016,-0.0019,-0.0019,-0.0018,-0.0007,-0.0008,-0.0007,-0.0014,-0.0014,-0.0014,-0.0007,0,-0.0107,-0.0097,-0.0091,-0.0083,-0.0078,-0.0072,-0.0066,-0.0059,-0.0054,-0.0048,-0.0041,-0.0035,-0.0033,-0.003,-0.0025,-0.0018,-0.0014,-0.0019,-0.0007,-0.0007,-0.0009,-0.0006,-0.0007,-0.0001,-0.0006,-0.0006,-0.0006,0,-0.0104,-0.0097,-0.0089,-0.0079,-0.0076,-0.0072,-0.0063,-0.0058,-0.0049,-0.0045,-0.0039,-0.0034,-0.0026,-0.0026,-0.0015,-0.0018,-0.0013,-0.0008,-0.0008,-0.0006,-0.0006,-0.0003,0.0,0.0002,-0.0005,-0.0005,-0.0005,0,-0.0107,-0.0096,-0.0089,-0.0086,-0.0074,-0.0071,-0.0066,-0.0057,-0.0052,-0.0044,-0.004,-0.0032,-0.0026,-0.0019,-0.0011,-0.0012,0.0,0.0,0.0004,0.0004,0.0007,0.0007,0.0012,0.0009,0.0009,0.0009,0.0009,0,-0.0106,-0.0101,-0.009,-0.0086,-0.0079,-0.0072,-0.0066,-0.006,-0.0052,-0.0046,-0.004,-0.0034,-0.0024,-0.0017,-0.0011,-0.0001,0.0001,0.0005,0.0007,0.0005,0.0005,0.0009,0.0009,0.0009,0.0009,0.0009,0.0009,0,-0.0108,-0.0101,-0.0093,-0.0083,-0.008,-0.0075,-0.0066,-0.0061,-0.0055,-0.0046,-0.0044,-0.0034,-0.0024,-0.0016,-0.0004,0.0001,0.0011,0.0013,0.0008,0.0009,0.0013,0.0013,0.0022,0.0024,0.0018,0.0018,0.0018,0,-0.0108,-0.0104,-0.0092,-0.0088,-0.0083,-0.0076,-0.007,-0.0063,-0.0057,-0.0046,-0.0042,-0.0032,-0.0023,-0.0008,0.0001,0.0011,0.0014,0.0016,0.0015,0.0014,0.0015,0.0015,0.0016,0.0016,0.0016,0.0016,0.0016,0,-0.0107,-0.0104,-0.0097,-0.0088,-0.0082,-0.0074,-0.0066,-0.0063,-0.0053,-0.0047,-0.0037,-0.0031,-0.0017,-0.0007,0.0005,0.0011,0.0016,0.0017,0.0018,0.0017,0.0014,0.0017,0.0009,0.0016,0.0016,0.0016,0.0016,0.0016,-0.0108,-0.0103,-0.0094,-0.0086,-0.0079,-0.0072,-0.0066,-0.0059,-0.0051,-0.004,-0.0035,-0.0025,-0.0014,0.0002,0.0008,0.0018,0.0018,0.002,0.0021,0.0022,0.0022,0.0012,0.002,0.002,0.002,0.002,0.002,0,-0.0106,-0.01,-0.0092,-0.0081,-0.0074,-0.0071,-0.0062,-0.0056,-0.0047,-0.0038,-0.003,-0.0017,-0.0007,0.0004,0.0015,0.0021,0.0023,0.0024,0.0024,0.0025,0.002,0.0018,0.0021,0.0021,0.0021,0.0021,0.0021,0.0021,-0.0105,-0.0096,-0.0091,-0.0079,-0.0072,-0.0062,-0.0057,-0.0049,-0.0042,-0.0029,-0.002,-0.0013,-0.0003,0.0009,0.002,0.0023,0.0027,0.0027,0.0031,0.0026,0.0025,0.0025,0.0023,0.0028,0.0028,0.0035,0.0036,0.0036]}]]